Weather History for Newton, KS

Change the Weather History Date:

Tuesday, May 28, 2013

  Actual Average Record
Temperature  
Mean Temperature 76 °F -  
Max Temperature 84 °F 76 °F 91 °F (2006)
Min Temperature 69 °F 55 °F 46 °F (1997)
Cooling Degree Days 12    
Growing Degree Days 26 (Base 50)    
Moisture  
Dew Point 66 °F    
Average Humidity 73    
Maximum Humidity 83    
Minimum Humidity 58    
Precipitation  
Precipitation 0.00 in - - ()
Sea Level Pressure  
Sea Level Pressure 29.69 in    
Wind  
Wind Speed 19 mph (South)    
Max Wind Speed 29 mph    
Max Gust Speed 43 mph    
Visibility 10 miles    
Events Thunderstorm    
Averages and records for this station are not official NWS values.
T = Trace of Precipitation, MM = Missing Value Source: NWS Daily Summary

Daily Weather History Graph

Daily Weather History Graph

Search for Another Location

Airport:

Trip Planner

Search our weather history database for the weather conditions in past years. The results will help you decide how hot, cold, wet, or windy it might be!

Date:

Astronomy

May. 28, 2013 Rise Set
Actual Time 6:09 AM CDT 8:43 PM CDT
Civil Twilight 5:39 AM CDT 9:14 PM CDT
Nautical Twilight 5:01 AM CDT 9:52 PM CDT
Astronomical Twilight 4:18 AM CDT 10:34 PM CDT
Moon No Moon Rise 9:57 AM CDT (5/28)
Length of Visible Light 15h 35m
Length of Day
14h 33m
Waning Gibbous, 82% of the Moon is Illuminated
May 28
Waning Gibbous
May 31
Last Quarter
Jun 8
New
Jun 16
First Quarter
Jun 23
Full

Hourly Weather History & Observations

Time (CDT) Temp. Heat Index Dew Point Humidity Pressure Visibility Wind Dir Wind Speed Gust Speed Precip Events Conditions
12:15 AM 71.6 °F - 64.4 °F 78% 29.69 in 10.0 mi South 17.3 mph 24.2 mph N/A   Clear
12:35 AM 71.6 °F - 64.4 °F 78% 29.69 in 10.0 mi South 20.7 mph 31.1 mph N/A   Clear
12:55 AM 71.6 °F - 64.4 °F 78% 29.68 in 10.0 mi South 19.6 mph 26.5 mph N/A   Clear
1:15 AM 71.6 °F - 64.4 °F 78% 29.68 in 10.0 mi South 20.7 mph 27.6 mph N/A   Clear
1:35 AM 71.6 °F - 64.4 °F 78% 29.68 in 10.0 mi South 21.9 mph 26.5 mph N/A   Clear
1:55 AM 71.6 °F - 64.4 °F 78% 29.68 in 10.0 mi South 17.3 mph 24.2 mph N/A   Clear
2:15 AM 71.6 °F - 64.4 °F 78% 29.67 in 10.0 mi South 18.4 mph 25.3 mph N/A   Clear
2:35 AM 71.6 °F - 64.4 °F 78% 29.66 in 10.0 mi South 21.9 mph 27.6 mph N/A   Clear
2:55 AM 71.6 °F - 64.4 °F 78% 29.66 in 10.0 mi South 19.6 mph 25.3 mph N/A   Clear
3:15 AM 71.6 °F - 64.4 °F 78% 29.66 in 10.0 mi South 20.7 mph - N/A   Clear
3:35 AM 71.6 °F - 64.4 °F 78% 29.67 in 10.0 mi South 17.3 mph 20.7 mph N/A   Clear
3:55 AM 71.6 °F - 64.4 °F 78% 29.67 in 10.0 mi South 15.0 mph 23.0 mph N/A   Clear
4:15 AM 71.6 °F - 64.4 °F 78% 29.67 in 10.0 mi South 17.3 mph - N/A   Clear
4:35 AM 71.6 °F - 64.4 °F 78% 29.67 in 10.0 mi South 16.1 mph - N/A   Clear
4:55 AM 71.6 °F - 64.4 °F 78% 29.67 in 10.0 mi South 16.1 mph 21.9 mph N/A   Clear
5:15 AM 69.8 °F - 64.4 °F 83% 29.67 in 10.0 mi South 15.0 mph - N/A   Clear
5:35 AM 69.8 °F - 64.4 °F 83% 29.67 in 10.0 mi South 16.1 mph 21.9 mph N/A   Clear
5:55 AM 69.8 °F - 64.4 °F 83% 29.67 in 10.0 mi South 17.3 mph - N/A   Clear
6:15 AM 69.8 °F - 64.4 °F 83% 29.67 in 10.0 mi South 16.1 mph 19.6 mph N/A   Clear
6:35 AM 69.8 °F - 64.4 °F 83% 29.68 in 10.0 mi South 15.0 mph - N/A   Clear
6:55 AM 71.6 °F - 64.4 °F 78% 29.69 in 10.0 mi South 15.0 mph - N/A   Clear
7:15 AM 71.6 °F - 66.2 °F 83% 29.70 in 10.0 mi South 13.8 mph - N/A   Partly Cloudy
7:35 AM 71.6 °F - 66.2 °F 83% 29.71 in 7.0 mi South 15.0 mph - N/A   Clear
7:55 AM 71.6 °F - 66.2 °F 83% 29.71 in 10.0 mi South 11.5 mph - N/A   Scattered Clouds
8:15 AM 73.4 °F - 66.2 °F 78% 29.71 in 7.0 mi South 15.0 mph - N/A   Mostly Cloudy
8:35 AM 73.4 °F - 66.2 °F 78% 29.71 in 9.0 mi South 15.0 mph - N/A   Overcast
8:55 AM 73.4 °F - 66.2 °F 78% 29.71 in 10.0 mi South 17.3 mph - N/A   Overcast
9:15 AM 73.4 °F - 66.2 °F 78% 29.71 in 10.0 mi South 13.8 mph - N/A   Overcast
9:35 AM 73.4 °F - 66.2 °F 78% 29.71 in 10.0 mi South 18.4 mph 24.2 mph N/A   Mostly Cloudy
9:55 AM 73.4 °F - 66.2 °F 78% 29.71 in 10.0 mi South 18.4 mph - N/A   Mostly Cloudy
10:15 AM 75.2 °F - 68.0 °F 78% 29.71 in 10.0 mi South 17.3 mph 23.0 mph N/A   Partly Cloudy
10:35 AM 75.2 °F - 68.0 °F 78% 29.71 in 7.0 mi South 17.3 mph 23.0 mph N/A   Clear
10:55 AM 77.0 °F - 68.0 °F 74% 29.70 in 9.0 mi South 18.4 mph 26.5 mph N/A   Clear
11:15 AM 80.6 °F 83.9 °F 69.8 °F 70% 29.70 in 8.0 mi South 19.6 mph 27.6 mph N/A   Clear
11:35 AM 80.6 °F 83.9 °F 69.8 °F 70% 29.70 in 10.0 mi South 21.9 mph 26.5 mph N/A   Mostly Cloudy
11:55 AM 80.6 °F 83.9 °F 69.8 °F 70% 29.69 in 9.0 mi South 23.0 mph 29.9 mph N/A   Mostly Cloudy
12:15 PM 80.6 °F 83.2 °F 68.0 °F 65% 29.69 in 9.0 mi SSW 19.6 mph 29.9 mph N/A   Mostly Cloudy
12:35 PM 82.4 °F 86.3 °F 69.8 °F 66% 29.69 in 9.0 mi SSW 21.9 mph 29.9 mph N/A   Mostly Cloudy
12:55 PM 82.4 °F 86.3 °F 69.8 °F 66% 29.69 in 10.0 mi South 21.9 mph 29.9 mph N/A   Mostly Cloudy
1:15 PM 84.2 °F 88.4 °F 69.8 °F 62% 29.69 in 8.0 mi SSW 21.9 mph 31.1 mph N/A   Mostly Cloudy
1:35 PM 84.2 °F 88.4 °F 69.8 °F 62% 29.68 in 10.0 mi South 20.7 mph 27.6 mph N/A   Overcast
1:55 PM 84.2 °F 88.4 °F 69.8 °F 62% 29.68 in 10.0 mi South 24.2 mph 34.5 mph N/A   Overcast
2:15 PM 82.4 °F 86.3 °F 69.8 °F 66% 29.68 in 9.0 mi South 25.3 mph 29.9 mph N/A   Overcast
2:35 PM 82.4 °F 86.3 °F 69.8 °F 66% 29.69 in 10.0 mi South 19.6 mph 31.1 mph N/A   Overcast
2:55 PM 82.4 °F 86.3 °F 69.8 °F 66% 29.69 in 10.0 mi South 23.0 mph 32.2 mph N/A   Overcast
3:15 PM 82.4 °F 86.3 °F 69.8 °F 66% 29.70 in 10.0 mi South 24.2 mph 29.9 mph N/A   Overcast
3:35 PM 82.4 °F 86.3 °F 69.8 °F 66% 29.69 in 10.0 mi South 25.3 mph 31.1 mph N/A   Overcast
3:55 PM 82.4 °F 85.4 °F 68.0 °F 62% 29.69 in 10.0 mi South 24.2 mph 33.4 mph N/A   Mostly Cloudy
4:15 PM 82.4 °F 85.4 °F 68.0 °F 62% 29.68 in 10.0 mi South 24.2 mph 28.8 mph N/A   Scattered Clouds
4:35 PM 82.4 °F 85.4 °F 68.0 °F 62% 29.68 in 10.0 mi South 24.2 mph 33.4 mph N/A   Scattered Clouds
4:55 PM 80.6 °F 82.7 °F 66.2 °F 61% 29.68 in 10.0 mi South 24.2 mph 31.1 mph N/A   Mostly Cloudy
5:15 PM 82.4 °F 84.6 °F 66.2 °F 58% 29.67 in 10.0 mi South 25.3 mph 33.4 mph N/A   Mostly Cloudy
5:35 PM 82.4 °F 85.4 °F 68.0 °F 62% 29.66 in 10.0 mi South 24.2 mph 32.2 mph N/A   Mostly Cloudy
5:55 PM 80.6 °F 82.7 °F 66.2 °F 61% 29.65 in 10.0 mi South 25.3 mph 34.5 mph N/A   Partly Cloudy
6:15 PM 78.8 °F - 66.2 °F 65% 29.64 in 10.0 mi South 28.8 mph 36.8 mph N/A   Mostly Cloudy
6:35 PM 78.8 °F - 64.4 °F 61% 29.61 in 10.0 mi South 27.6 mph 38.0 mph N/A   Scattered Clouds
6:55 PM 77.0 °F - 64.4 °F 65% 29.63 in 8.0 mi South 27.6 mph 42.6 mph N/A   Scattered Clouds
7:15 PM 75.2 °F - 64.4 °F 69% 29.69 in 10.0 mi South 24.2 mph 31.1 mph N/A   Overcast
7:35 PM 75.2 °F - 64.4 °F 69% 29.70 in 10.0 mi South 21.9 mph 28.8 mph N/A   Mostly Cloudy
7:55 PM 75.2 °F - 64.4 °F 69% 29.71 in 10.0 mi South 21.9 mph 28.8 mph N/A   Partly Cloudy
8:15 PM 75.2 °F - 64.4 °F 69% 29.73 in 10.0 mi South 23.0 mph 27.6 mph N/A   Partly Cloudy
8:35 PM 75.2 °F - 64.4 °F 69% 29.73 in 10.0 mi South 18.4 mph 32.2 mph N/A   Mostly Cloudy
8:55 PM 75.2 °F - 64.4 °F 69% 29.74 in 10.0 mi South 21.9 mph - N/A   Overcast
9:15 PM 73.4 °F - 64.4 °F 73% 29.76 in 10.0 mi South 19.6 mph 27.6 mph N/A Thunderstorm Thunderstorm
9:35 PM 73.4 °F - 64.4 °F 73% 29.77 in 10.0 mi South 17.3 mph 27.6 mph N/A   Overcast
9:55 PM 73.4 °F - 64.4 °F 73% 29.76 in 10.0 mi South 17.3 mph 23.0 mph N/A   Scattered Clouds
10:15 PM 73.4 °F - 64.4 °F 73% 29.76 in 10.0 mi South 17.3 mph 25.3 mph N/A   Clear
10:35 PM 71.6 °F - 64.4 °F 78% 29.75 in 10.0 mi South 20.7 mph 26.5 mph N/A   Clear
10:55 PM 71.6 °F - 64.4 °F 78% 29.75 in 10.0 mi South 18.4 mph 24.2 mph N/A   Clear
11:15 PM 71.6 °F - 64.4 °F 78% 29.74 in 10.0 mi South 24.2 mph 31.1 mph N/A   Clear
11:35 PM 71.6 °F - 64.4 °F 78% 29.74 in 10.0 mi South 20.7 mph 26.5 mph N/A   Clear
11:55 PM 71.6 °F - 64.4 °F 78% 29.74 in 10.0 mi South 19.6 mph 26.5 mph N/A   Clear